JA6YCL-13 Weather Reports


Display with metric or nautical units.
time (UTC)temp
F
wind
direction
speed
MPH
gust
MPH
rain 1hr
in
rain 24hr
in
rain mn
in
humidity
%
barometer
mb
20260508085323 71 62 1.0 2.0 0.00 0.00 0.00 43 1011.3
20260508083923 71 319 2.0 6.0 0.00 0.00 0.00 43 1011.2
20260508082547 71 61 4.0 8.0 0.00 0.00 0.00 43 1010.9
20260508081213 72 341 3.0 8.0 0.00 0.00 0.00 42 1010.8
20260508075916 75 251 5.0 11.0 0.00 0.00 0.00 31 1010.2
20260508074708 75 248 5.0 18.0 0.00 0.00 0.00 29 1010.1
20260508073503 76 241 6.0 17.0 0.00 0.00 0.00 28 1009.9
20260508072003 77 248 5.0 13.0 0.00 0.00 0.00 28 1009.8
20260508070508 77 248 6.0 13.0 0.00 0.00 0.00 27 1009.8
20260508065113 77 241 7.0 14.0 0.00 0.00 0.00 27 1009.8
20260508063648 77 230 6.0 18.0 0.00 0.00 0.00 30 1009.8
20260508062447 77 240 7.0 21.0 0.00 0.00 0.00 32 1009.6
20260508061248 78 261 5.0 13.0 0.00 0.00 0.00 32 1009.7
20260508055913 77 235 9.0 15.0 0.00 0.00 0.00 33 1009.8
20260508054613 76 224 9.0 19.0 0.00 0.00 0.00 34 1009.8
20260508053228 76 223 5.0 15.0 0.00 0.00 0.00 34 1009.8
20260508051853 77 241 7.0 21.0 0.00 0.00 0.00 35 1009.8
20260508050441 77 244 6.0 13.0 0.00 0.00 0.00 36 1010.0
20260508045207 76 238 7.0 16.0 0.00 0.00 0.00 37 1010.2
20260508043728 76 240 7.0 15.0 0.00 0.00 0.00 39 1010.5
20260508042404 75 259 7.0 17.0 0.00 0.00 0.00 39 1010.5
20260508041108 75 241 4.0 22.0 0.00 0.00 0.00 41 1010.4
20260508035611 74 253 6.0 19.0 0.00 0.00 0.00 44 1010.4
20260508034341 73 254 5.0 14.0 0.00 0.00 0.00 46 1010.4
20260508032908 72 256 7.0 18.0 0.00 0.00 0.00 49 1010.5
20260508031618 72 246 7.0 18.0 0.00 0.00 0.00 51 1010.7
20260508030340 73 254 5.0 16.0 0.00 0.00 0.00 54 1010.8
20260508025123 73 258 4.0 14.0 0.00 0.00 0.00 54 1010.7
20260508023648 74 237 8.0 19.0 0.00 0.00 0.00 52 1010.6
20260508022323 74 219 6.0 18.0 0.00 0.00 0.00 53 1010.7
20260508020938 73 235 6.0 15.0 0.00 0.00 0.00 53 1010.5
20260508015501 73 280 6.0 15.0 0.00 0.00 0.00 56 1010.4
20260508014055 73 240 3.0 7.0 0.00 0.00 0.00 57 1010.5
20260508012808 71 242 5.0 14.0 0.00 0.00 0.00 60 1010.6
20260508011338 71 264 6.0 11.0 0.00 0.00 0.00 61 1010.7
20260508005852 71 252 5.0 10.0 0.00 0.00 0.00 61 1010.6
20260508004543 71 247 5.0 9.0 0.00 0.00 0.00 62 1010.7
20260508003333 71 237 3.0 8.0 0.00 0.00 0.00 63 1010.7
20260508002043 70 248 4.0 9.0 0.00 0.00 0.00 64 1010.8
20260508000643 70 108 0.0 1.0 0.00 0.00 0.00 65 1010.4
20260507235227 68 77 1.0 2.0 0.00 0.00 0.00 68 1010.5
20260507233950 68 338 1.0 2.0 0.00 0.00 0.00 69 1010.5
20260507232701 68 287 1.0 2.0 0.00 0.00 0.00 68 1010.5
20260507231433 68 252 3.0 6.0 0.00 0.00 0.00 68 1011.0
20260507230203 68 239 3.0 10.0 0.00 0.00 0.00 68 1011.0
20260507224824 66 249 3.0 8.0 0.00 0.00 0.00 71 1011.0
20260507223453 65 130 0.0 1.0 0.00 0.00 0.00 79 1011.0
20260507222222 64 129 1.0 1.0 0.00 0.00 0.00 80 1011.2
20260507220947 63 117 2.0 3.0 0.00 0.00 0.00 82 1011.0
20260507215708 63 343 0.0 1.0 0.00 0.00 0.00 82 1010.9
20260507214453 63 12 1.0 2.0 0.00 0.00 0.00 83 1010.8
20260507213245 63 128 1.0 2.0 0.00 0.00 0.00 83 1010.8
20260507212048 63 105 1.0 2.0 0.00 0.00 0.00 83 1010.7
20260507210628 64 197 0.0 1.0 0.00 0.00 0.00 81 1010.5
20260507205343 63 71 1.0 1.0 0.00 0.00 0.00 79 1010.2
20260507204012 62 117 1.0 2.0 0.00 0.00 0.00 83 1010.5
20260507202708 63 126 1.0 2.0 0.00 0.00 0.00 82 1010.6
20260507201343 63 0.0 0.0 0.00 0.00 0.00 81 1010.6
20260507195938 64 125 1.0 2.0 0.00 0.00 0.00 80 1010.4
20260507194626 64 127 0.0 1.0 0.00 0.00 0.00 79 1010.2
20260507193138 63 120 0.0 1.0 0.00 0.00 0.00 80 1010.3
20260507191748 64 194 1.0 1.0 0.00 0.00 0.00 79 1010.8
20260507190328 64 247 0.0 2.0 0.00 0.00 0.00 78 1010.6
20260507184923 64 222 0.0 0.0 0.00 0.00 0.00 79 1010.4
20260507183538 64 222 0.0 1.0 0.00 0.00 0.00 79 1010.5
20260507182207 64 221 0.0 1.0 0.00 0.00 0.00 78 1010.6
20260507180943 65 224 1.0 2.0 0.00 0.00 0.00 77 1010.6
20260507175615 65 262 0.0 1.0 0.00 0.00 0.00 75 1010.9
20260507174313 66 311 1.0 2.0 0.00 0.00 0.00 73 1011.1
20260507172910 66 244 2.0 4.0 0.00 0.00 0.00 71 1011.1
20260507171638 66 248 0.0 1.0 0.00 0.00 0.00 73 1011.1
20260507170203 66 231 1.0 2.0 0.00 0.00 0.00 75 1011.6
20260507164722 66 193 1.0 2.0 0.00 0.00 0.00 74 1011.6
20260507163243 67 241 2.0 4.0 0.00 0.00 0.00 74 1011.6
20260507161741 66 243 2.0 4.0 0.00 0.00 0.00 76 1011.8
20260507160537 66 241 3.0 4.0 0.00 0.00 0.00 78 1011.8
20260507155058 66 243 3.0 7.0 0.00 0.00 0.00 78 1011.9
20260507153743 66 239 3.0 7.0 0.00 0.00 0.00 79 1011.7
20260507152518 66 237 2.0 4.0 0.00 0.00 0.00 82 1011.9
20260507151243 66 226 2.0 4.0 0.00 0.00 0.00 82 1011.8
20260507150035 66 240 3.0 6.0 0.00 0.00 0.00 84 1012.0
20260507144638 65 216 1.0 2.0 0.00 0.00 0.00 88 1012.1
20260507143243 65 228 1.0 3.0 0.00 0.00 0.00 88 1012.2
20260507142042 65 235 2.0 2.0 0.00 0.00 0.00 89 1012.3
20260507140728 65 231 1.0 2.0 0.00 0.00 0.00 89 1012.2
20260507135528 65 214 0.0 2.0 0.00 0.00 0.00 88 1012.3
20260507134158 65 195 0.0 0.0 0.00 0.00 0.00 88 1012.4
20260507132832 66 195 0.0 1.0 0.00 0.00 0.00 88 1012.5
20260507131447 66 206 1.0 1.0 0.00 0.00 0.00 88 1012.4
20260507130143 66 204 0.0 1.0 0.00 0.00 0.00 87 1012.4
20260507124908 66 195 1.0 1.0 0.00 0.00 0.00 86 1012.2
20260507123413 67 0.0 0.0 0.00 0.00 0.00 85 1012.2
20260507121917 67 0.0 0.0 0.00 0.00 0.00 84 1012.2
20260507120703 67 0.0 0.0 0.00 0.00 0.00 84 1012.0
20260507115222 68 125 0.0 1.0 0.00 0.00 0.00 82 1011.9
20260507113828 68 0.0 0.0 0.00 0.00 0.00 82 1011.9
20260507112433 69 125 0.0 1.0 0.00 0.00 0.00 80 1011.7
20260507111013 69 138 1.0 2.0 0.00 0.00 0.00 80 1011.6
20260507105713 69 140 1.0 2.0 0.00 0.00 0.00 80 1011.7
20260507104438 69 149 1.0 3.0 0.00 0.00 0.00 79 1011.4
20260507103227 69 173 0.0 2.0 0.00 0.00 0.00 79 1011.5
20260507102006 70 179 1.0 4.0 0.00 0.00 0.00 78 1011.1
20260507100712 70 184 1.0 4.0 0.00 0.00 0.00 78 1011.2
20260507095347 70 184 1.0 3.0 0.00 0.00 0.00 76 1011.0
20260507094058 71 192 2.0 7.0 0.00 0.00 0.00 75 1011.0
20260507092653 72 171 1.0 4.0 0.00 0.00 0.00 73 1010.8
20260507091312 73 125 3.0 6.0 0.00 0.00 0.00 72 1010.9
20260507085846 73 164 1.0 3.0 0.00 0.00 0.00 71 1010.8